Location: Wellington
(41.3000°S, 174.7830°E)
Time: 18:17:15
(UTC+13:00)

Cosmos 2278 Rocket - Pass Details

Date: 24 January 2019
Orbit: 839 x 847 km, 71.0° (Epoch: 20 February)

Event Time Altitude Azimuth Distance (km) Brightness Sun altitude
Rises 23:29:01 0° 196° (SSW) 3,431 6.7 -23.0°
Reaches altitude 10° 23:31:50 10° 184° (S) 2,489 5.5 -23.3°
Maximum altitude 23:36:45 29° 125° (SE) 1,526 3.5 -23.8°
Enters shadow 23:38:18 25° 98° (E) 1,648 3.5 -23.9°
